TimeEDT,TemperatureF,Dew PointF,Humidity,Sea Level PressureIn,VisibilityMPH,Wind Direction,Wind SpeedMPH,Gust SpeedMPH,PrecipitationIn,Events,Conditions,WindDirDegrees,DateUTC
12:58 AM,63.7,52.2,66,30.12,10.0,South,5.8,-,N/A,,Mostly Cloudy,170,2013-08-08 04:58:00
1:58 AM,64.4,53.4,67,30.11,10.0,South,5.8,-,N/A,,Overcast,180,2013-08-08 05:58:00
2:58 AM,64.8,53.8,68,30.10,10.0,SSE,5.8,-,N/A,,Overcast,160,2013-08-08 06:58:00
3:58 AM,64.9,54.7,69,30.09,10.0,SE,5.8,-,N/A,,Overcast,140,2013-08-08 07:58:00
4:13 AM,64.4,55.4,73,30.08,10.0,SSE,4.6,-,N/A,,Overcast,150,2013-08-08 08:13:00
4:24 AM,64.4,55.4,73,30.07,10.0,SSE,4.6,-,N/A,Rain,Light Rain Showers,150,2013-08-08 08:24:00
4:49 AM,62.6,57.2,82,30.06,5.0,SSE,4.6,-,N/A,Rain-Thunderstorm,Rain Showers,150,2013-08-08 08:49:00
4:58 AM,62.1,58.6,89,30.07,7.0,SSE,3.5,-,0.05,Rain-Thunderstorm,Light Rain Showers,150,2013-08-08 08:58:00
5:07 AM,62.6,59.0,88,30.06,10.0,SE,5.8,-,N/A,,Overcast,140,2013-08-08 09:07:00
5:58 AM,62.6,60.3,92,30.07,10.0,SSE,3.5,-,0.00,,Overcast,150,2013-08-08 09:58:00
6:58 AM,63.5,60.8,91,30.07,10.0,SE,2.3,-,N/A,,Overcast,140,2013-08-08 10:58:00
7:58 AM,65.1,61.3,88,30.08,10.0,SSE,2.3,-,N/A,,Overcast,150,2013-08-08 11:58:00
8:58 AM,68.9,63.9,84,30.07,10.0,South,6.9,-,N/A,,Overcast,190,2013-08-08 12:58:00
9:13 AM,69.8,64.4,83,30.05,10.0,South,5.8,-,N/A,,Overcast,180,2013-08-08 13:13:00
9:58 AM,70.3,65.3,84,30.07,10.0,SSW,5.8,-,N/A,,Overcast,210,2013-08-08 13:58:00
10:58 AM,72.5,66.4,81,30.06,10.0,SW,8.1,-,N/A,,Overcast,220,2013-08-08 14:58:00
11:58 AM,75.7,67.6,76,30.04,10.0,SSW,8.1,-,N/A,,Mostly Cloudy,210,2013-08-08 15:58:00
12:58 PM,79.2,68.0,69,30.04,10.0,SW,9.2,-,N/A,,Mostly Cloudy,220,2013-08-08 16:58:00
1:13 PM,80.6,68.0,65,30.03,10.0,SSW,8.1,-,N/A,,Mostly Cloudy,210,2013-08-08 17:13:00
1:58 PM,82.0,68.7,64,30.02,10.0,SSW,10.4,-,N/A,,Mostly Cloudy,200,2013-08-08 17:58:00
2:58 PM,83.3,68.4,61,30.02,10.0,SW,10.4,19.6,N/A,,Mostly Cloudy,230,2013-08-08 18:58:00
3:58 PM,82.9,69.1,63,30.01,10.0,SSW,11.5,17.3,N/A,,Mostly Cloudy,210,2013-08-08 19:58:00
4:58 PM,81.9,68.0,63,30.01,10.0,SSW,11.5,-,N/A,,Mostly Cloudy,210,2013-08-08 20:58:00
5:58 PM,80.1,67.6,66,30.00,10.0,SSW,5.8,-,N/A,,Mostly Cloudy,200,2013-08-08 21:58:00
6:58 PM,78.6,68.5,71,29.99,10.0,South,5.8,-,N/A,,Mostly Cloudy,180,2013-08-08 22:58:00
8:58 PM,73.8,68.4,83,30.02,10.0,South,6.9,-,N/A,,Overcast,180,2013-08-09 00:58:00
9:58 PM,73.4,68.4,84,30.03,10.0,South,6.9,-,N/A,,Overcast,190,2013-08-09 01:58:00
10:58 PM,72.1,68.4,88,30.02,10.0,SSE,6.9,-,N/A,,Mostly Cloudy,160,2013-08-09 02:58:00